Theta_e
345 343 342 341 342 344 345 344 344 343 342 342 342 342 342 340 340 342 339 338 340 340 337 337 341 340 340 339 336 333 330 328 326 325 330 332 333 336 338 333 335 335 336
345 343 343 342 342 343 344 344 343 342 340 340 340 340 341 341 342 343 342 341 339 337 335 337 340 339 339 335 331 329 328 328 328 327 328 329 329 333 335 332 335 337 335
344 344 342 341 342 343 344 342 341 339 338 336 338 338 339 340 341 342 342 339 338 336 336 339 339 339 336 331 327 325 326 327 327 327 327 327 327 332 332 331 334 334 333
345 344 342 341 342 343 342 341 339 337 335 334 334 339 342 340 341 341 341 340 337 336 338 338 337 336 332 328 326 325 327 327 327 328 329 331 331 335 335 332 332 334 335
345 345 343 342 342 341 340 339 338 335 333 338 335 339 340 341 340 340 339 338 335 334 336 337 336 330 328 327 326 326 328 327 330 331 333 332 334 336 337 335 333 333 334
344 344 343 342 342 341 340 338 336 334 335 337 337 338 338 339 340 338 335 334 331 333 335 335 334 328 326 326 326 326 327 327 328 331 335 335 336 336 336 336 336 335 334
342 342 343 343 342 340 338 337 335 335 334 337 338 337 337 337 336 331 328 328 329 333 334 334 332 326 326 325 325 325 326 326 327 328 332 334 334 335 335 336 335 335 335
342 341 343 342 341 339 337 336 336 332 333 336 336 335 335 335 331 327 324 326 328 332 334 334 331 326 326 325 325 325 326 323 325 327 328 329 331 332 333 333 334 334 335
340 340 340 340 339 337 334 337 334 331 330 334 335 334 332 328 328 325 325 327 331 333 333 332 327 325 324 324 324 324 325 323 323 325 325 325 327 329 333 332 334 333 333
339 339 338 337 335 335 338 337 333 332 332 330 325 325 327 329 324 328 330 329 328 332 332 329 325 325 324 325 325 325 324 323 322 322 324 324 325 326 331 331 332 333 332
340 339 337 338 338 339 338 335 331 334 332 324 324 324 326 326 328 330 329 327 324 323 323 325 326 325 325 324 324 326 324 322 322 322 322 323 323 326 329 331 330 331 331
341 340 338 338 339 339 337 334 331 335 332 326 325 328 332 331 333 331 328 326 324 322 322 323 325 325 324 324 325 324 324 322 321 320 321 321 321 325 326 325 329 329 329
341 339 337 337 338 338 336 333 331 335 332 328 327 327 330 329 330 328 325 324 322 321 324 325 325 323 322 322 323 325 324 322 322 323 323 325 322 323 322 323 324 327 327
341 338 336 336 336 337 335 334 331 332 333 329 329 326 328 328 327 326 324 324 323 321 324 325 323 322 322 322 322 322 323 320 320 319 319 324 326 324 321 321 322 325 326
341 338 337 337 337 335 335 332 331 330 331 329 330 327 326 328 326 326 324 324 325 323 324 324 323 322 322 322 322 322 322 320 319 318 321 321 320 320 323 324 321 321 322
341 339 339 338 338 334 335 332 332 330 330 328 328 326 324 326 327 327 326 325 323 324 324 324 323 322 321 322 321 321 321 319 320 320 318 318 319 320 320 321 320 320 320
341 339 340 339 338 336 336 334 332 329 328 328 327 326 325 325 324 325 325 325 323 323 323 324 323 322 321 320 320 320 321 320 321 320 320 318 318 316 316 321 322 321 321
341 340 340 339 338 337 336 335 332 330 327 327 326 326 325 324 325 324 324 324 323 323 323 323 323 322 321 320 319 319 319 319 319 320 320 319 318 318 314 319 319 318 317
341 340 339 339 339 338 336 334 334 331 330 329 326 325 325 324 325 325 323 324 323 324 323 323 323 322 322 321 320 319 319 319 319 319 320 319 319 318 318 316 315 314 315
340 339 339 339 339 338 336 335 333 332 331 330 326 324 324 324 324 325 324 324 324 323 324 324 324 323 322 322 322 322 321 320 320 320 319 319 319 318 318 319 319 318 314
338 338 339 338 338 337 335 335 333 332 332 330 328 325 325 324 324 325 324 324 324 324 324 324 324 324 323 322 322 322 322 322 321 320 320 320 319 319 318 318 318 318 317
337 337 338 338 337 336 335 333 333 332 332 331 329 325 325 324 324 325 326 324 323 324 324 324 325 325 323 323 323 323 320 322 322 321 321 321 320 320 319 318 318 318 317
329 337 338 337 336 335 334 333 333 332 333 332 329 326 325 325 324 325 326 325 324 323 325 325 324 325 324 323 324 325 322 324 322 322 321 321 321 320 320 320 319 319 318
309 320 336 336 336 334 334 333 333 332 332 331 331 327 326 325 325 323 325 326 325 323 324 325 324 325 325 324 324 323 324 323 321 321 322 322 321 321 321 320 319 319 319
304 308 325 334 334 333 334 333 332 330 331 330 331 331 328 327 326 326 323 325 325 322 323 325 325 324 324 324 324 323 322 322 323 322 320 322 322 321 321 321 320 319 319
298 303 312 323 327 333 333 331 331 331 330 329 330 331 330 328 327 326 325 321 321 322 322 324 324 322 325 325 324 323 322 323 323 323 322 322 322 322 322 322 321 321 320
Wind_Speed
28 28 26 27 27 28 28 27 25 23 20 20 21 22 20 20 20 21 22 23 23 26 26 24 23 26 29 29 30 29 30 29 25 22 25 27 26 26 27 27 27 25 24
33 32 29 29 29 29 28 28 25 22 20 21 21 21 19 20 21 25 27 28 29 27 24 24 24 25 27 27 28 28 28 25 24 24 24 26 25 25 25 26 25 27 24
33 31 31 31 30 29 28 27 24 21 19 21 22 20 19 19 21 24 26 28 29 25 24 23 24 26 26 26 27 27 23 22 26 26 27 24 23 22 23 25 23 26 25
33 32 32 31 30 30 28 25 23 20 20 22 23 22 21 22 22 24 26 27 27 26 24 24 25 25 26 25 26 23 25 29 27 26 24 23 21 20 21 23 22 22 23
31 29 33 32 31 29 27 25 22 20 22 22 25 23 23 23 23 23 24 24 25 26 24 24 24 24 27 27 26 25 24 22 24 22 23 21 20 21 24 20 23 22 21
31 31 34 33 31 30 27 24 22 23 23 22 23 23 24 23 23 23 22 21 24 25 23 24 24 26 27 26 23 20 22 22 23 23 30 24 27 24 25 27 25 22 21
31 30 34 33 32 29 26 25 24 23 21 22 24 26 24 22 22 22 22 21 23 23 22 23 25 27 27 26 23 25 21 18 19 23 29 29 27 26 24 24 24 21 19
34 34 33 32 31 29 28 26 26 23 23 24 23 23 22 21 19 21 21 21 22 23 23 25 25 27 26 25 23 21 22 24 22 21 23 26 27 24 24 23 23 22 25
33 33 31 31 29 29 29 29 27 24 25 24 20 20 20 19 22 24 24 24 23 24 24 25 27 28 26 27 24 22 23 23 21 19 17 18 20 21 24 22 23 22 22
34 33 32 31 31 31 30 30 27 26 25 23 22 22 24 26 25 25 25 26 26 26 25 25 26 25 21 24 21 27 25 23 19 18 19 17 16 18 21 22 22 23 21
31 33 33 33 33 34 33 30 27 27 27 28 27 27 27 25 25 25 27 27 26 24 22 22 22 21 18 19 19 21 19 23 21 20 16 17 16 17 20 22 22 23 23
33 33 33 32 33 35 34 30 28 27 31 30 28 26 24 25 25 28 26 24 21 20 22 21 20 16 14 15 14 19 26 25 21 19 17 17 16 16 18 15 21 21 23
33 32 34 32 32 31 35 32 29 30 32 30 27 25 24 24 29 28 26 21 21 21 21 17 14 14 14 12 16 20 19 20 19 19 18 16 20 15 14 15 16 18 19
34 34 35 33 33 30 34 31 32 33 29 29 26 27 27 28 26 24 21 20 18 18 16 17 17 16 15 15 15 19 22 20 16 19 16 17 18 18 16 12 13 17 17
33 35 37 36 34 34 31 31 30 30 30 28 20 27 28 28 28 24 22 19 18 17 14 18 17 17 16 17 17 22 17 16 15 18 16 17 16 15 16 16 13 12 13
34 36 38 38 34 37 31 32 30 31 29 31 22 24 23 25 26 24 24 19 21 16 18 18 18 17 17 16 19 16 15 16 15 17 16 15 14 17 15 13 15 13 11
36 38 37 39 37 36 34 31 31 30 31 26 26 25 24 23 25 22 22 22 21 18 18 18 17 18 17 17 17 15 18 16 15 12 13 13 11 12 12 12 14 14 14
37 39 37 38 39 36 36 32 32 30 31 27 27 25 23 23 23 23 23 20 22 20 21 19 18 20 17 16 16 15 15 15 13 12 11 9 8 9 10 11 11 11 11
39 40 37 38 41 39 37 33 29 32 30 28 27 28 24 24 24 20 26 20 24 22 21 19 19 18 17 16 15 17 14 13 13 12 10 8 9 6 9 10 6 8 9
37 41 37 36 39 38 38 33 31 28 28 26 28 27 25 26 26 22 23 21 22 23 20 18 19 17 17 16 14 14 14 13 10 11 9 9 8 7 5 6 5 7 8
41 39 34 36 40 39 38 34 33 32 30 27 28 29 26 27 27 25 24 24 21 22 20 20 19 19 17 15 14 11 10 8 8 8 7 5 7 5 6 5 3 2 6
36 37 39 36 40 38 37 36 33 31 30 28 27 30 31 30 28 27 25 26 23 22 20 19 19 19 18 16 12 10 3 3 5 5 5 5 5 2 2 3 2 2 1
15 31 38 37 40 37 36 34 28 29 28 27 28 29 29 31 29 28 26 26 24 22 23 20 21 18 21 18 6 3 2 2 8 6 5 5 5 3 4 3 2 2 2
12 6 27 38 38 38 38 33 36 31 28 28 29 30 29 28 29 28 27 27 24 23 24 21 22 20 21 17 9 4 5 5 2 1 6 7 5 6 3 5 5 5 3
15 11 13 31 38 34 40 36 36 32 30 29 28 29 29 28 30 28 30 29 27 26 26 23 25 21 16 16 13 8 4 2 3 4 2 4 7 7 5 4 3 4 7
22 18 13 19 21 32 40 37 36 34 31 30 30 30 30 30 28 29 28 28 26 26 28 26 22 21 16 12 12 10 8 4 3 2 2 4 4 7 3 4 5 5 5
Wind_Direction
145 155 155 152 150 145 142 137 135 128 127 121 118 115 112 105 99 99 121 120 114 103 97 96 94 90 88 86 85 82 78 70 68 76 80 75 72 65 72 73 69 68 68
150 152 153 154 151 146 144 139 136 134 132 128 123 122 117 107 106 100 103 108 101 96 97 98 97 93 88 86 84 82 79 77 73 69 84 80 79 63 66 69 70 72 68
144 151 154 154 153 149 145 141 140 138 134 127 124 123 121 118 114 109 107 105 101 100 99 102 102 95 91 88 88 88 79 85 81 75 75 74 72 66 66 63 65 68 70
144 150 155 155 154 151 147 144 141 136 130 125 130 123 124 125 118 111 106 105 107 105 105 105 102 100 94 86 83 89 82 83 82 84 81 79 76 71 70 70 72 73 68
146 149 153 155 154 152 149 146 143 134 131 131 135 127 118 121 120 115 110 111 112 111 107 107 106 100 93 90 89 88 85 90 80 79 75 87 80 69 72 83 76 72 72
149 155 155 155 155 151 150 148 142 137 137 137 140 134 126 116 114 115 114 117 116 116 112 111 106 103 99 95 90 91 94 94 84 79 71 81 75 70 67 67 77 74 74
151 156 156 154 156 153 152 148 146 140 140 140 131 130 126 123 119 117 116 119 120 115 115 116 111 105 99 95 94 83 84 90 95 82 70 70 70 68 66 64 67 69 73
144 154 156 157 156 155 151 152 147 141 141 141 137 131 127 124 125 124 120 120 121 116 116 116 111 106 97 92 90 89 83 88 74 91 77 69 68 65 65 66 68 67 78
149 150 159 163 160 159 155 154 148 144 140 144 144 141 137 135 133 128 123 120 119 118 119 116 112 104 94 94 93 90 93 87 83 88 84 77 69 67 63 70 66 69 74
147 155 157 157 157 155 155 154 149 146 144 139 135 134 133 133 131 128 124 120 118 114 113 116 114 103 101 94 90 96 92 88 84 86 81 80 77 74 65 72 66 65 72
147 155 156 154 154 155 153 153 150 148 146 137 128 126 123 127 129 130 127 120 116 112 110 110 112 116 108 89 92 97 90 94 87 80 80 78 83 82 70 68 70 68 68
153 157 157 155 152 153 153 155 151 148 148 138 130 132 122 135 137 132 127 120 114 108 106 107 102 99 93 90 85 92 102 96 88 85 83 79 76 92 75 84 67 68 64
159 156 158 158 157 152 154 157 154 150 151 146 141 139 143 139 133 131 130 132 117 115 116 111 102 95 103 96 100 103 104 93 98 90 92 88 86 87 85 80 77 71 69
162 159 160 159 159 157 153 155 154 154 155 158 157 146 146 142 145 145 141 138 129 133 114 110 108 104 105 109 106 100 104 103 95 89 92 83 88 84 80 86 82 72 70
163 161 162 162 160 162 156 158 156 157 161 168 164 149 145 145 151 149 147 147 144 136 126 125 116 106 103 98 108 93 96 103 102 108 98 90 82 77 73 79 78 80 73
165 165 164 163 161 160 160 159 162 162 163 167 162 150 151 160 160 163 157 155 145 145 135 128 122 111 107 103 101 103 103 105 105 108 100 90 89 92 79 75 77 78 77
169 168 166 163 162 162 163 162 161 161 164 167 158 156 162 157 165 157 156 151 149 145 143 138 127 120 111 107 107 110 109 103 120 102 90 91 94 84 79 87 83 75 73
170 170 166 164 163 165 163 160 159 162 159 164 162 162 163 163 157 163 166 155 152 154 144 137 134 125 118 113 110 107 103 109 112 117 104 95 84 73 73 100 88 75 73
172 172 169 164 164 165 162 159 158 157 158 160 166 164 164 166 161 155 161 156 155 147 144 142 136 134 130 125 125 118 116 122 115 112 107 108 99 79 66 75 72 69 71
177 173 166 164 162 161 163 158 162 159 163 162 163 165 163 164 163 157 163 162 155 151 151 149 141 143 141 129 123 111 114 117 120 115 117 99 98 104 72 58 64 45 52
189 179 167 166 164 159 161 163 164 166 164 165 168 165 162 164 164 163 167 168 161 162 163 157 152 150 148 138 125 114 109 113 114 118 127 117 113 117 97 95 59 28 37
188 177 174 166 165 169 164 174 170 168 161 162 166 172 171 167 168 168 166 168 172 167 168 166 165 154 153 157 155 144 125 150 162 152 148 138 140 145 146 138 113 124 22
148 180 173 169 172 173 170 171 164 168 162 158 166 172 175 175 172 172 170 170 172 174 174 173 174 166 162 179 179 178 113 138 152 177 182 172 183 199 202 254 248 247 186
46 111 177 177 172 175 173 167 170 171 166 170 172 171 173 173 175 176 177 176 175 178 179 176 175 179 175 187 198 151 100 97 150 114 194 204 199 220 238 221 238 268 268
44 46 136 171 174 172 173 176 172 173 176 176 175 171 176 175 182 181 181 181 179 179 181 184 184 180 179 191 189 185 199 82 78 110 165 193 206 217 237 269 268 255 254
33 44 88 142 162 176 178 182 176 170 174 175 178 171 173 181 187 188 184 185 185 184 188 191 188 189 188 198 198 202 192 164 181 155 149 176 172 194 216 239 266 290 293